Location: Nashville
(36.1660°N, 86.7840°W)
Time: 20:11:19
(UTC-06:00)

Vanguard 1 Rocket - All Passes

Search period start: 22 January 2022 00:00
Search period end: 01 February 2022 00:00
Orbit: 651 x 4224 km, 34.3° (Epoch: 22 January)

Date Brightness Start Highest point End Pass type
(mag) Time Alt. Az. Time Alt. Az. Time Alt. Az.
22 Jan - 07:48:26 10° SE 07:54:51 11° SE 08:01:05 10° ESE daylight
22 Jan - 10:02:35 10° SSW 10:25:02 39° SE 10:41:42 10° E daylight
22 Jan - 12:31:37 10° WSW 12:55:42 68° SSE 13:09:11 10° E daylight
22 Jan - 15:05:58 10° W 15:24:59 83° S 15:34:15 10° E daylight
22 Jan - 17:39:44 10° W 17:51:37 55° SSW 17:57:54 10° SE visible
22 Jan - 20:14:29 10° SW 20:15:06 10° SW 20:15:43 10° SW visible
23 Jan - 08:51:24 10° S 09:10:49 28° SE 09:27:23 10° E daylight
23 Jan - 11:16:45 10° SW 11:41:33 58° SSE 11:57:25 10° E daylight
23 Jan - 13:49:32 10° WSW 14:11:55 81° S 14:23:19 10° E daylight
23 Jan - 16:24:23 10° W 16:40:02 73° SSW 16:47:44 10° ESE daylight
23 Jan - 18:57:18 10° W 19:04:48 26° SW 19:09:41 10° SSE visible
24 Jan - 07:43:19 10° SSE 07:56:51 17° SE 08:09:46 10° E daylight
24 Jan - 10:03:14 10° SSW 10:27:06 46° SSE 10:44:51 10° E daylight
24 Jan - 12:33:25 10° WSW 12:58:08 74° SSE 13:12:02 10° E daylight
24 Jan - 15:08:16 10° W 15:27:40 82° S 15:37:09 10° E daylight
24 Jan - 17:42:15 10° W 17:54:04 46° SSW 18:00:29 10° SE visible
25 Jan - 08:51:21 10° SSW 09:12:42 35° SE 09:31:03 10° E daylight
25 Jan - 11:18:12 10° SW 11:43:47 65° SSE 12:00:15 10° E daylight
25 Jan - 13:51:43 10° W 14:14:31 83° S 14:26:12 10° E daylight
25 Jan - 16:26:45 10° W 16:42:37 66° SSW 16:50:30 10° ESE daylight
25 Jan - 19:00:30 10° W 19:06:57 19° SW 19:11:28 10° S visible
26 Jan - 07:41:39 10° S 07:58:38 23° SE 08:15:02 10° E daylight
26 Jan - 10:04:17 10° SW 10:29:06 54° SSE 10:47:47 10° E daylight
26 Jan - 12:35:24 10° WSW 13:00:35 79° SSE 13:14:51 10° E daylight
26 Jan - 15:10:35 10° W 15:30:18 79° SSW 15:39:59 10° ESE daylight
26 Jan - 17:44:49 10° W 17:56:22 38° SW 18:02:52 10° SSE visible
27 Jan - 06:37:23 10° SE 06:45:05 12° SE 06:52:55 10° ESE daylight
27 Jan - 08:51:52 10° SSW 09:14:29 42° SE 09:34:18 10° E daylight
27 Jan - 11:19:55 10° WSW 11:46:01 71° SSE 12:03:02 10° E daylight
27 Jan - 13:53:59 10° W 14:17:06 84° S 14:29:03 10° E daylight
27 Jan - 16:29:06 10° W 16:45:05 58° SSW 16:53:09 10° SE daylight
27 Jan - 19:04:20 10° W 19:08:57 14° SW 19:12:34 10° SSW visible
28 Jan - 07:41:15 10° S 08:00:18 29° SE 08:19:08 10° E daylight
28 Jan - 10:05:40 10° SW 10:31:06 61° SSE 10:50:35 10° ENE daylight
28 Jan - 12:37:32 10° WSW 13:03:03 83° S 13:17:40 10° E daylight
28 Jan - 15:12:52 10° W 15:32:53 75° SSW 15:42:47 10° ESE daylight
28 Jan - 17:47:32 10° W 17:58:31 31° SW 18:05:01 10° SSE visible
29 Jan - 06:33:35 10° SSE 06:46:44 18° SE 07:00:37 10° E daylight
29 Jan - 08:52:51 10° SSW 09:16:15 49° SE 09:37:15 10° ENE daylight
29 Jan - 11:21:50 10° WSW 11:48:18 77° SSE 12:05:47 10° E daylight
29 Jan - 13:56:16 10° W 14:19:41 83° S 14:31:53 10° ESE daylight
29 Jan - 16:31:28 10° WNW 16:47:24 50° SW 16:55:41 10° SE daylight
30 Jan - 07:41:38 10° SSW 08:01:53 36° SE 08:22:35 10° E daylight
30 Jan - 10:07:20 10° SW 10:33:08 68° SSE 10:53:19 10° E daylight
30 Jan - 12:39:46 10° W 13:05:33 85° S 13:20:28 10° E daylight
30 Jan - 15:15:08 10° W 15:35:20 68° SSW 15:45:30 10° ESE daylight
30 Jan - 17:50:29 10° W 18:00:29 24° SW 18:06:51 10° S visible
31 Jan - 06:32:29 10° S 06:48:14 23° SE 07:05:35 10° E daylight
31 Jan - 08:54:12 10° SW 09:18:01 56° SSE 09:40:02 10° ENE daylight
31 Jan - 11:23:57 10° WSW 11:50:37 81° SSE 12:08:32 10° E daylight
31 Jan - 13:58:33 10° W 14:22:12 80° SSW 14:34:40 10° ESE daylight
31 Jan - 16:33:54 10° WNW 16:49:32 43° SW 16:58:00 10° SSE daylight
